Regional Weather Roundup
Issued by NWS Portland, ME

Home | Current Version | Previous Version | Text Only | Print | Product List | Glossary On
Versions: 1 2 3 4 5 6 7 8 9 10 11 12 13 14 15 16 17 18 19 20 21 22 23 24 25 26 27 28 29 30 31 32 33 34 35 36 37 38 39 40 41 42 43 44 45 46 47 48 49 50
467
ASUS41 KGYX 032010
RWRGYX
WEATHER ROUNDUP FOR MAINE AND NEW HAMPSHIRE
NATIONAL WEATHER SERVICE GRAY ME
300 PM EST SAT DEC 03 2016

MEZ002-005-006-010-012-015-018-020-021-024-026-027-029-032100-
MAINE

CITY           SKY/WX    TMP DP  RH WIND       PRES   REMARKS
PORTLAND       MOCLDY    41  23  48 N16       29.86R
SANFORD        CLOUDY    42  25  50 W17G23    29.86R
BAR HARBOR     CLOUDY    35  30  82 NW7       29.81R
WISCASSET      CLOUDY    40  22  48 VRB5      29.85R
ROCKLAND       PTCLDY    40  24  53 NW9G23    29.82R
FRYEBURG       CLOUDY    40  23  50 N7        29.87R
LEWISTONAUBURN CLOUDY    39  25  57 NW15G21   29.85R
AUGUSTA        CLOUDY    38  23  55 N13       29.83R
WATERVILLE     CLOUDY    37  23  56 N12G18    29.81R
BANGOR         CLOUDY    35  25  66 NW13      29.82R
GREENVILLE       N/A     29  24  82 N14G21    29.77R WCI  18
MILLINOCKET    CLOUDY    33  26  75 N8        29.82R
HOULTON        LGT SNOW  31  29  92 N7        29.78R FOG
PRESQUE ISLE   FLURRIES  32  29  88 NW8       29.81R
FRENCHVILLE    CLOUDY    29  24  82 NW16      29.79R WCI  17
CARIBOU        LGT SNOW  31  27  85 NW10      29.79R FOG
$$

NHZ002-005-008-009-011-012-014-032100-
NEW HAMPSHIRE

CITY           SKY/WX    TMP DP  RH WIND       PRES   REMARKS
PORTSMOUTH     MOCLDY    42  24  47 W17G24    29.86R
ROCHESTER      PTCLDY    40  24  53 NW13      29.86R
NASHUA         MOCLDY    42  24  49 NW16G26   29.91R
MANCHESTER     MOCLDY    43  23  45 NW10      29.88R
CONCORD        MOCLDY    41  24  51 NW15G26   29.90R
LACONIA        MOCLDY    37  27  67 W10G16    29.90R
PLYMOUTH       FLURRIES  35  30  82 W9        29.90R
BERLIN         CLOUDY    34  23  64 NW8G20    29.86R
WHITEFIELD     CLOUDY    33  26  75 NW8       29.89R
JAFFREY        CLOUDY    38  24  57 VRB7      29.90R
KEENE          CLOUDY    39  25  57 N8        29.94R
LEBANON        CLOUDY    39  27  62 NW13G23   29.93R
MT WASHINGTON  SNOWSHWR  10  10 100 NW66        N/A  VSB 0   WCI -19
$$

VTZ005-007-008-032100-
VERMONT

CITY           SKY/WX    TMP DP  RH WIND       PRES   REMARKS
ST JOHNSBURY     N/A     33  31  92 MISG      29.91R
MONTPELIER     LGT SNOW  31  27  85 NW14G24   29.96R FOG
BURLINGTON     FLURRIES  36  27  69 NW17G24   29.99R
$$

MAZ007-012-024-CTZ003-RIZ002-NYZ038-NYZ072-032100-
SOUTHERN NEW ENGLAND AND NY

CITY           SKY/WX    TMP DP  RH WIND       PRES   REMARKS
BOSTON         MOCLDY    43  24  47 W14G22    29.89R
WORCESTER      CLOUDY    37  23  56 W20G25    29.90R
NANTUCKET      MOSUNNY   45  26  47 NW20G29   29.87R
PROVIDENCE     CLOUDY    45  24  43 NW12G21   29.92R
HARTFORD       PTSUNNY   41  23  48 W16       29.97R
ALBANY         MOSUNNY   38  24  57 NW15G26   30.03R
NEW YORK CITY  MOSUNNY   49  28  44 NW26G36   30.03R
$$

ANZ081-ANZ082-ANZ150-NHZ014-MEZ023>029-032100-
COASTAL MARINE OBSERVATIONS

STATION/POSITION TIME  TEMP    WIND        PRES    WAVE
                       AIR SEA DIR/SP/G            HT/PER
                 (UTC) (F)     (DEG/KT/KT) (MB)    (FT/S)
MOUNT DESERT ROC 2000   37                 1008.6R
MATINICUS ROCK   1900   40     340/ 22/ 24 1008.0R
ISLE OF SHOALS   1900   43     300/ 26/ 29 1009.7R
JEFFREYS LEDGE   1908      51                N/A     5/ 5
CASHES LEDGE BUO 1950   43 51  310/ 21/ 27 1008.6R   6/ 6
GEORGES BANK BUO 1950   46 52              1004.8R  12/ 8
$$

.............KEY..............
   WCI - WIND CHILL
   TC  - TEMPERATURE IN CELSIUS
   VSB - VISIBILITY IN MILES
   HX  - HEAT INDEX
   FAIR- INDICATES FEW OR NO CLOUDS BELOW 12,000 FT, WITH NO
         SIGNIFICANT WEATHER AND/OR OBSTRUCTIONS TO VISIBILITY.






USA.gov is the U.S. government's official web portal to all federal, state and local government web resources and services.